GEFSSE_con_probscp_078.txt.gz
Probability
0 0 0 0 0 0 0 0 0 0 0 0 0 0 0 0 0 0 0 0 0 0 0 0 0 0 0 0 0 0 0 0 0 0 0 0 0 0 0 0 0 0 0
0 0 0 0 0 0 0 0 0 0 0 0 0 0 0 0 0 0 0 0 0 0 0 0 0 0 0 0 0 0 0 0 0 0 0 0 0 0 0 0 0 0 0
0 0 1 2 2 0 0 0 0 0 0 0 0 0 0 0 0 0 0 0 0 0 0 0 0 0 0 0 0 0 0 0 0 0 0 0 0 0 0 0 0 0 0
0 0 1 4 4 2 0 0 0 0 0 0 0 0 0 0 0 0 0 0 0 0 0 0 0 0 0 0 0 0 0 0 0 0 0 0 0 0 0 0 0 0 0
0 0 2 6 6 3 1 0 0 0 0 0 0 0 0 0 0 0 0 0 0 0 0 0 0 0 0 0 0 0 0 0 0 0 0 0 0 0 0 0 0 0 0
0 0 4 9 9 4 1 0 0 0 0 0 0 0 0 0 0 0 0 0 0 0 0 0 0 0 0 0 0 0 0 0 0 0 0 0 0 0 0 0 0 0 0
0 0 5 11 12 6 2 1 1 1 1 1 0 0 0 0 0 0 0 0 0 0 0 0 0 0 0 0 0 0 0 0 0 0 0 0 0 0 0 0 0 0 0
0 0 3 8 10 7 4 3 4 4 3 3 2 1 1 1 0 0 0 0 0 0 1 1 0 0 0 0 0 0 0 0 0 0 0 0 0 0 1 1 0 0 0
0 0 1 4 5 6 5 6 7 7 5 5 4 4 3 2 1 0 1 1 0 1 2 2 2 1 1 1 1 0 0 0 0 0 0 0 0 1 3 5 4 2 1
1 1 1 2 4 4 4 5 6 6 5 4 4 4 3 3 2 2 2 3 3 4 6 7 7 6 5 4 2 1 0 0 0 0 0 0 1 3 7 10 9 6 5
5 4 3 3 4 4 3 4 4 5 4 3 3 3 4 4 3 3 3 5 7 9 12 16 18 16 12 9 5 3 1 2 2 1 0 0 1 3 9 16 19 15 11
11 8 5 5 5 4 4 4 4 4 3 4 4 6 8 8 6 4 5 7 11 13 17 25 31 30 25 20 13 8 5 4 4 2 1 1 1 3 11 24 33 31 26
21 13 8 7 7 6 6 6 6 5 5 7 8 10 12 13 11 8 8 9 12 16 23 32 39 41 38 31 23 14 8 7 8 6 3 2 2 5 16 32 44 47 45
36 23 12 10 10 9 10 12 13 11 12 15 17 18 20 21 18 15 12 11 14 21 30 36 39 39 35 30 24 16 9 10 13 10 6 6 6 10 21 36 46 51 53
52 39 25 21 23 23 24 27 26 24 25 28 31 33 35 34 29 25 21 16 17 23 30 32 30 26 22 19 18 14 10 10 13 12 9 8 9 12 22 34 42 46 47
62 56 49 47 50 52 50 50 47 42 42 46 48 50 51 49 44 37 28 21 17 18 21 20 17 14 13 11 10 9 7 6 8 11 10 10 10 13 22 31 38 41 42
67 66 67 71 75 76 74 71 67 61 59 59 59 59 57 55 49 37 26 18 13 11 11 11 9 8 6 5 3 3 3 3 6 9 11 11 12 14 21 30 35 38 38
67 66 69 76 81 83 82 79 73 67 62 58 56 53 49 46 38 26 17 12 8 6 5 5 4 3 1 1 0 0 1 2 5 8 9 11 12 14 17 22 26 29 31
62 62 63 69 74 75 73 68 60 53 48 43 40 38 33 29 24 17 10 6 4 3 2 2 1 1 0 0 0 0 1 2 4 5 6 7 8 10 11 12 13 17 20
59 57 56 58 62 61 55 48 42 34 29 25 23 22 19 16 14 11 7 4 2 1 1 1 0 0 0 0 0 0 0 1 1 2 3 4 5 6 6 7 8 9 11
54 51 45 44 47 45 39 35 31 24 17 12 10 11 11 10 8 6 4 3 2 2 1 0 0 0 0 0 0 0 0 0 0 0 1 3 5 5 4 4 6 7 8
44 41 36 32 31 30 29 28 25 19 12 7 5 6 6 6 4 2 1 1 2 3 2 1 0 0 0 0 0 0 0 0 0 0 0 2 5 5 4 3 3 4 6
33 32 29 24 21 21 22 25 25 22 16 11 9 7 5 4 3 1 0 1 1 2 2 2 0 0 0 0 0 0 0 0 0 0 0 0 2 3 3 2 2 2 3
24 24 21 18 15 15 18 24 27 27 25 21 15 11 8 6 4 3 2 2 2 2 2 1 0 0 0 0 0 0 0 0 0 0 0 0 0 1 1 1 1 1 1
15 16 15 12 10 11 14 19 22 24 26 23 17 12 10 8 6 4 3 4 5 4 3 1 0 0 0 0 0 0 0 0 0 0 0 0 0 0 0 0 0 0 0
10 11 11 10 7 7 9 12 15 17 20 18 14 11 11 9 5 3 3 4 6 7 5 2 1 0 0 0 0 0 0 0 0 0 0 0 0 0 0 0 0 0 0

GEFSSE_con_probscp_084.txt.gz
Probability
0 0 0 0 0 0 0 0 1 1 1 0 0 0 0 0 0 0 0 0 0 0 0 0 0 0 0 0 0 0 0 0 0 0 0 0 0 0 0 0 0 0 0
0 0 0 1 1 0 0 0 0 0 0 0 0 0 0 0 0 0 0 0 0 0 0 0 0 0 0 0 0 0 0 0 0 0 0 0 0 0 0 0 0 0 0
0 0 1 2 2 1 1 0 0 0 0 0 0 0 0 0 0 0 0 0 0 0 0 0 0 0 0 0 0 0 0 0 0 0 0 0 0 0 0 0 0 0 0
1 1 3 5 5 4 3 3 2 1 0 0 0 0 0 0 0 0 0 0 0 0 0 0 0 0 0 0 0 0 0 0 0 0 0 0 0 0 0 0 0 0 0
5 5 7 11 12 10 9 7 5 2 0 0 0 0 0 0 0 0 0 0 0 0 0 0 0 0 0 0 0 0 0 0 0 0 0 0 0 0 0 0 0 0 0
9 9 15 23 22 16 14 12 8 4 1 1 1 1 1 1 0 0 0 0 0 0 0 0 0 0 0 0 0 0 0 0 0 0 0 0 0 0 0 0 0 0 0
14 15 24 37 36 25 18 16 12 7 4 3 3 2 2 1 0 0 0 0 0 0 0 0 0 0 0 0 0 0 0 0 0 0 0 0 0 0 0 0 0 0 0
18 20 29 43 46 36 25 21 19 14 10 7 4 2 1 1 0 0 0 0 0 0 0 0 0 0 0 0 0 0 0 0 0 0 0 0 0 0 0 0 0 0 0
18 23 31 38 43 40 33 29 26 21 14 9 5 2 0 0 0 0 0 0 0 0 0 0 0 0 0 0 0 0 0 0 0 0 0 0 0 0 0 0 0 0 0
18 24 33 37 38 40 39 36 30 23 15 10 6 4 2 1 1 1 0 0 0 0 0 0 0 0 0 0 0 0 0 0 0 0 0 0 0 0 0 0 0 0 0
20 26 35 41 43 46 45 38 31 23 15 11 10 7 5 5 4 3 2 1 0 0 0 0 0 0 0 1 1 1 1 1 1 1 0 0 0 0 0 0 0 0 0
18 24 34 42 48 52 49 40 34 29 22 17 15 11 9 9 9 6 5 3 2 2 1 2 3 4 4 5 6 6 5 4 4 3 1 0 0 0 0 0 0 0 0
18 24 33 43 53 56 51 42 38 36 32 25 21 18 15 14 13 10 8 8 8 6 4 5 7 9 11 11 12 11 8 8 9 7 3 0 0 0 1 2 2 1 1
24 28 36 47 56 58 52 43 39 38 36 30 26 25 22 18 15 12 12 13 12 9 7 8 9 10 13 16 15 11 9 8 9 8 4 1 1 1 2 3 4 3 2
33 34 39 48 53 51 47 42 39 39 39 33 29 28 26 22 17 14 13 13 11 8 7 7 8 8 12 15 13 9 6 5 4 4 3 1 2 3 4 5 5 4 3
43 41 42 45 43 39 38 38 39 41 41 36 30 28 29 26 21 16 13 10 7 7 7 7 7 7 8 10 9 6 3 1 0 1 1 1 1 3 6 9 9 8 7
50 47 46 45 40 34 32 34 35 37 38 35 29 26 28 26 22 18 12 7 4 5 7 8 8 6 5 4 3 2 1 0 0 0 0 0 0 2 5 10 13 14 14
47 47 49 48 42 35 33 33 33 34 34 31 27 24 21 19 18 15 10 5 3 4 6 8 8 5 2 1 0 0 0 0 0 0 0 0 0 0 2 6 10 14 16
37 40 45 46 42 38 36 34 34 33 31 29 27 22 14 10 10 8 6 4 3 3 3 4 4 3 1 0 0 0 0 0 0 0 0 0 0 0 0 1 5 8 9
29 31 35 37 37 37 34 32 30 29 28 27 24 18 10 6 4 3 2 2 2 1 1 1 1 1 0 0 0 0 0 0 0 0 0 0 0 0 0 0 2 4 4
25 25 25 26 28 28 26 24 23 21 20 19 16 12 8 4 3 2 1 1 1 0 0 0 0 0 0 0 0 0 0 0 0 0 0 0 0 0 0 0 0 2 3
21 18 15 15 16 17 16 15 14 12 10 10 8 6 5 4 4 3 1 0 0 0 0 0 0 0 0 0 0 0 0 0 0 0 0 0 0 0 0 0 0 0 1
13 10 8 8 7 7 6 6 6 4 4 4 3 2 2 3 4 3 2 0 0 0 0 0 0 0 0 0 0 0 0 0 0 0 0 0 0 0 0 0 0 0 0
7 6 4 3 2 2 1 2 2 1 1 1 1 1 1 2 3 3 2 1 0 0 0 0 0 0 0 0 0 0 0 0 0 0 0 0 0 0 0 0 0 0 0
3 3 2 1 1 1 1 1 2 1 0 0 0 0 1 1 2 2 2 1 0 0 0 0 0 0 0 0 0 0 0 0 0 0 0 0 0 0 0 0 0 0 0
1 1 1 0 1 2 2 2 3 2 1 0 0 0 0 0 1 1 1 0 0 0 0 0 0 0 0 0 0 0 0 0 0 0 0 0 0 0 0 0 0 0 0

GEFSSE_con_probscp_090.txt.gz
Probability
2 3 2 0 0 0 0 0 1 2 4 4 2 1 0 0 0 0 0 0 0 0 0 0 0 0 0 0 0 0 0 0 0 0 0 0 0 0 0 0 0 0 0
4 4 3 0 0 0 0 0 1 2 3 2 1 0 0 0 0 0 0 0 0 0 0 0 0 0 0 0 0 0 0 0 0 0 0 0 0 0 0 0 0 0 0
5 5 2 0 0 0 0 0 0 1 1 1 0 0 0 0 0 0 0 0 0 0 0 0 0 0 0 0 0 0 0 0 0 0 0 0 0 0 0 0 0 0 0
5 5 3 1 0 0 0 0 0 0 0 0 0 0 0 0 0 0 0 0 0 0 0 0 0 0 0 0 0 0 0 0 0 0 0 0 0 0 0 0 0 0 0
4 4 5 3 1 0 0 1 1 1 1 1 1 0 0 0 0 0 0 0 0 0 0 0 0 0 0 0 0 0 0 0 0 0 0 0 0 0 0 0 0 0 0
3 5 7 6 2 0 0 1 2 3 4 4 4 3 2 1 0 0 0 0 0 0 0 0 0 0 0 0 0 0 0 0 0 0 0 0 0 0 0 0 0 0 0
3 6 9 7 2 0 0 0 2 4 6 6 7 7 4 1 0 0 0 0 0 0 0 0 0 0 0 0 0 0 0 0 0 0 0 0 0 0 0 0 0 0 0
3 6 10 9 3 1 2 1 3 5 7 8 9 9 5 1 0 0 0 0 0 0 0 0 0 0 0 0 0 0 0 0 0 0 0 0 0 0 0 0 0 0 0
4 7 10 9 5 3 3 4 6 9 10 11 11 10 7 4 2 1 0 0 0 0 0 0 0 0 0 0 0 0 0 0 0 0 0 0 1 0 0 0 0 0 0
7 8 9 9 7 5 4 7 11 14 15 16 15 13 10 6 3 2 1 1 1 0 0 0 0 0 0 0 1 1 0 0 0 0 0 2 4 2 0 0 0 0 0
15 12 10 10 9 6 6 9 13 15 18 19 19 19 14 7 4 4 6 7 5 1 0 0 0 0 0 1 2 3 1 0 0 0 5 11 11 4 1 0 0 0 0
28 24 19 18 16 12 11 14 16 20 24 25 27 29 25 17 13 10 13 17 13 6 3 3 3 1 0 3 7 7 4 2 2 2 13 26 21 7 1 0 0 1 1
43 39 35 34 33 28 25 25 26 31 37 38 38 43 44 39 33 27 26 28 25 19 13 12 10 5 2 6 10 9 6 6 7 9 23 38 30 10 2 0 0 2 3
56 53 49 53 56 54 49 46 43 44 49 51 52 56 59 59 53 46 42 39 37 33 26 23 20 12 6 6 8 8 8 9 10 15 30 44 35 16 5 1 1 2 4
66 62 60 66 74 76 74 67 60 57 56 59 63 65 67 67 63 56 53 48 43 38 33 29 23 16 11 10 7 6 6 8 8 12 26 37 32 19 10 4 3 5 6
69 67 69 76 84 86 83 78 71 66 64 64 66 66 66 64 60 57 55 49 42 38 36 29 21 17 17 15 9 5 5 6 5 7 15 23 24 18 12 7 7 10 13
69 70 72 77 82 83 82 79 73 68 66 65 62 59 55 53 53 55 55 49 42 37 35 29 20 18 19 16 10 6 6 6 5 5 7 13 17 14 10 8 10 16 20
73 72 71 69 72 74 75 74 70 65 62 59 55 49 46 46 48 51 52 48 40 34 30 25 20 17 17 14 9 5 5 7 6 3 3 6 11 11 7 8 12 18 21
72 70 65 63 63 65 65 65 64 60 54 49 45 43 42 43 44 45 44 41 34 28 24 21 17 15 14 11 6 3 3 5 4 1 0 2 6 7 6 8 13 18 20
60 58 56 58 60 59 57 56 53 49 43 38 35 34 35 36 37 37 36 33 28 23 22 20 16 13 11 7 4 2 1 1 1 0 0 0 2 3 4 7 13 18 20
45 43 42 47 51 52 51 46 40 35 31 28 24 21 20 22 25 28 30 29 25 21 22 19 14 10 8 6 4 2 1 0 0 0 0 0 1 1 2 5 11 16 19
33 31 29 32 37 40 40 33 27 24 22 18 14 12 11 11 13 18 24 26 23 19 18 15 10 7 6 5 4 2 1 0 0 0 0 1 2 1 1 2 5 10 13
21 20 18 20 23 25 24 20 17 18 17 13 11 11 11 9 10 14 19 21 19 16 13 10 7 6 5 5 4 3 1 0 0 0 0 1 2 1 0 0 1 3 4
11 11 11 13 14 13 12 11 13 14 14 11 11 12 11 9 9 12 15 17 18 16 13 9 7 5 4 5 5 4 3 1 0 0 0 1 2 1 0 0 0 0 0
6 6 7 9 10 10 10 11 13 13 11 10 10 11 10 9 8 8 11 15 19 18 16 15 12 8 6 6 8 8 6 4 2 1 1 1 1 1 0 0 0 0 0
6 6 6 7 9 11 12 12 12 12 10 9 9 10 10 9 7 7 8 13 18 19 19 20 18 12 9 9 11 12 10 7 5 3 2 1 1 0 0 0 0 0 0

GEFSSE_con_probscp_096.txt.gz
Probability
25 19 17 13 6 3 1 0 0 0 0 0 0 0 0 0 0 0 0 0 0 0 0 0 0 0 0 0 0 0 0 0 0 0 0 0 0 0 0 0 0 0 0
36 27 22 18 10 4 1 0 0 0 0 0 0 0 0 0 0 0 0 0 0 0 0 0 0 0 0 0 0 0 0 0 0 0 0 0 0 0 0 0 0 0 0
45 31 24 23 16 8 3 1 0 0 0 0 0 0 0 0 0 0 0 0 0 0 0 0 0 0 0 0 0 0 0 0 0 0 0 0 0 0 0 0 0 0 0
42 28 21 25 22 13 7 3 1 0 0 0 0 0 0 0 0 0 0 0 0 0 0 0 0 0 0 0 0 0 0 0 0 0 0 0 0 0 0 0 0 0 0
33 24 24 28 24 17 11 6 3 1 1 0 0 0 0 0 0 0 0 0 0 0 0 0 0 0 0 0 0 0 0 0 0 0 0 0 0 0 0 0 0 0 0
30 26 28 30 25 19 14 9 5 3 2 1 0 0 0 0 1 1 1 1 1 0 0 0 0 0 0 0 0 0 0 0 0 0 0 0 0 0 0 0 0 0 0
40 37 35 35 31 26 19 12 7 4 3 2 1 1 1 2 3 4 3 2 2 1 0 0 0 0 0 0 0 0 0 0 0 0 1 2 2 1 1 0 0 0 0
58 53 44 40 38 33 25 16 10 7 5 4 3 3 5 6 7 6 5 5 5 4 3 1 1 0 0 0 0 0 0 0 0 0 2 6 8 6 3 1 0 0 0
73 65 49 40 38 32 24 18 15 13 11 8 5 5 6 8 9 10 11 12 12 11 9 6 4 2 0 0 1 1 0 0 0 0 2 11 18 16 9 4 1 1 0
78 68 48 37 33 24 18 19 22 22 19 16 12 10 9 9 10 12 17 20 21 19 16 14 11 7 3 2 2 2 1 0 0 0 3 16 31 31 18 9 4 2 1
72 65 51 42 32 17 16 25 28 27 27 27 25 26 22 13 10 16 26 38 41 33 26 23 21 17 9 3 4 5 2 0 0 0 8 29 47 45 30 17 9 5 3
58 60 59 55 42 22 25 39 34 29 36 38 39 46 42 26 18 25 45 65 69 56 44 38 35 28 15 7 9 12 6 1 0 1 16 47 65 59 43 28 16 8 4
51 56 62 68 61 44 48 60 47 38 51 55 54 64 63 47 37 44 66 84 84 74 60 53 48 37 21 13 20 23 12 3 2 5 26 59 77 72 56 39 23 12 7
60 60 66 76 78 71 72 76 65 58 68 73 74 79 79 71 63 66 79 87 84 76 65 57 54 44 31 24 27 27 18 8 5 11 32 60 76 75 64 46 29 16 10
76 74 77 84 88 86 85 85 80 78 79 84 87 89 88 86 82 80 83 84 78 73 68 62 57 54 46 36 30 29 25 16 11 17 32 51 63 64 59 46 30 18 12
86 85 86 89 91 91 89 89 88 86 84 85 89 90 89 89 86 83 81 79 75 75 75 70 65 62 57 46 37 32 30 24 20 23 31 42 49 48 47 41 29 19 15
88 89 90 91 91 90 90 88 86 84 82 83 86 87 85 84 84 82 79 77 77 78 77 72 66 62 57 51 42 33 31 30 27 27 30 35 36 34 34 34 30 24 20
87 88 89 89 89 88 87 84 83 83 81 79 79 78 74 75 78 77 74 73 76 78 73 66 60 55 52 48 40 31 29 30 28 25 25 28 28 25 24 26 29 27 23
83 84 84 85 86 84 82 82 83 84 82 75 69 65 62 63 66 66 61 62 66 69 66 58 52 50 47 40 31 24 25 27 26 22 20 23 23 20 17 18 21 21 19
76 77 79 81 82 80 79 81 81 81 78 70 62 56 52 51 51 49 46 47 50 54 55 49 45 46 42 34 22 18 22 23 20 18 16 16 15 13 13 16 17 15 11
63 66 71 74 76 75 75 77 76 72 67 62 57 51 45 39 36 32 30 33 36 39 42 41 40 39 35 28 20 16 15 15 13 12 11 10 6 6 11 17 19 15 9
45 50 56 61 65 67 67 66 65 58 52 49 49 45 36 28 25 20 19 21 23 26 31 34 35 31 26 22 18 12 9 8 7 7 7 6 4 5 8 13 18 17 14
29 33 39 46 53 56 54 52 49 41 35 35 38 35 27 21 18 17 15 15 16 19 23 26 26 23 20 17 14 10 9 9 8 5 4 4 5 5 5 7 12 16 16
20 23 30 38 44 48 47 44 39 33 29 30 32 29 21 16 15 16 16 16 17 18 19 20 20 20 17 14 12 13 15 15 10 4 2 3 6 6 4 3 7 13 15
15 19 27 34 39 43 43 39 38 36 33 33 31 27 20 14 13 14 14 16 19 19 18 17 19 21 20 16 14 18 20 18 13 7 2 3 6 7 5 4 7 12 14
13 16 24 33 39 41 38 36 37 38 37 36 33 28 21 15 12 11 12 14 17 19 18 16 18 23 23 20 19 21 22 18 15 10 4 2 4 7 8 7 7 12 16